Weather History for Maastricht, Netherlands

Change the Weather History Date:

Monday, July 8, 2013

  Actual Average Record
Temperature  
Mean Temperature 69 °F -  
Max Temperature 80 °F 71 °F 89 °F (2010)
Min Temperature 58 °F 54 °F 48 °F (2000)
Cooling Degree Days 4    
Growing Degree Days 19 (Base 50)    
Moisture  
Dew Point 57 °F    
Average Humidity 64    
Maximum Humidity 94    
Minimum Humidity 35    
Precipitation  
Precipitation 0.00 in 0.09 in - ()
Sea Level Pressure  
Sea Level Pressure 30.39 in    
Wind  
Wind Speed 9 mph ()    
Max Wind Speed 15 mph    
Max Gust Speed -    
Visibility 7.4 miles    
Events      
Averages and records for this station are not official NWS values.
T = Trace of Precipitation, MM = Missing Value Source: Averaged Metar Reports

Daily Weather History Graph

Daily Weather History Graph

Search for Another Location

Airport:

Trip Planner

Search our weather history database for the weather conditions in past years. The results will help you decide how hot, cold, wet, or windy it might be!

Date:

Astronomy

Jul. 08, 2013 Rise Set
Actual Time 5:32 AM CEST 9:50 PM CEST
Civil Twilight 4:48 AM CEST 10:35 PM CEST
Nautical Twilight 3:42 AM CEST 11:40 PM CEST
Astronomical Twilight 2:14 AM CEST 1:09 AM CEST
Moon 5:58 AM CEST (7/8) 9:30 PM CEST (7/8)
Length of Visible Light 17h 47m
Length of Day
16h 17m
Waxing Crescent, 0% of the Moon is Illuminated
Jul 8
Waxing Crescent
Jul 16
First Quarter
Jul 22
Full
Jul 29
Last Quarter
Aug 6
New

Hourly Weather History & Observations

Time (CEST) Temp. Heat Index Dew Point Humidity Pressure Visibility Wind Dir Wind Speed Gust Speed Precip Events Conditions
12:25 AM 68.0 °F - 55.4 °F 64% 30.42 in 6.2 mi NNE 9.2 mph - N/A   Unknown
12:55 AM 64.4 °F - 55.4 °F 73% 30.42 in 6.2 mi NNE 8.1 mph - N/A   Unknown
1:25 AM 64.4 °F - 55.4 °F 73% 30.42 in 6.2 mi NNE 9.2 mph - N/A   Unknown
1:55 AM 62.6 °F - 55.4 °F 77% 30.42 in 6.2 mi NNE 8.1 mph - N/A   Unknown
2:00 AM 62 °F - 56 °F 73% 30.43 in 15 mi NNE 8.9 mph - -   Partly Cloudy
2:25 AM 62.6 °F - 55.4 °F 77% 30.42 in 6.2 mi NNE 9.2 mph - N/A   Unknown
2:55 AM 62.6 °F - 55.4 °F 77% 30.42 in 6.2 mi NNE 9.2 mph - N/A   Unknown
3:25 AM 60.8 °F - 55.4 °F 82% 30.42 in 6.2 mi NNE 8.1 mph - N/A   Unknown
3:55 AM 60.8 °F - 55.4 °F 82% 30.42 in 6.2 mi NNE 9.2 mph - N/A   Unknown
4:25 AM 60.8 °F - 55.4 °F 82% 30.42 in 6.2 mi NNE 9.2 mph - N/A   Unknown
4:55 AM 59.0 °F - 55.4 °F 88% 30.42 in 6.2 mi NNE 8.1 mph - N/A   Unknown
5:00 AM 60 °F - 56 °F 82% 30.43 in 11 mi NNE 6.7 mph - -  
5:25 AM 59.0 °F - 55.4 °F 88% 30.42 in 6.2 mi NE 6.9 mph - N/A   Unknown
5:55 AM 59.0 °F - 55.4 °F 88% 30.42 in 6.2 mi NE 8.1 mph - N/A   Unknown
6:25 AM 59.0 °F - 57.2 °F 94% 30.42 in 6.2 mi NNE 6.9 mph - N/A   Unknown
6:55 AM 60.8 °F - 57.2 °F 88% 30.42 in 6.2 mi NNE 6.9 mph - N/A   Unknown
7:25 AM 62.6 °F - 57.2 °F 82% 30.42 in 6.2 mi NNE 8.1 mph - N/A   Unknown
7:55 AM 62.6 °F - 57.2 °F 82% 30.42 in 6.2 mi NE 9.2 mph - N/A   Unknown
8:00 AM 63 °F - 58 °F 78% 30.44 in 7 mi NE 8.9 mph - -   Partly Cloudy
8:25 AM 64.4 °F - 59.0 °F 83% 30.42 in 6.2 mi NE 9.2 mph - N/A   Unknown
8:55 AM 64.4 °F - 57.2 °F 77% 30.42 in 6.2 mi NNE 6.9 mph - N/A   Unknown
9:25 AM 66.2 °F - 59.0 °F 78% 30.42 in 6.2 mi NNE 6.9 mph - N/A   Unknown
9:55 AM 68.0 °F - 60.8 °F 78% 30.42 in 6.2 mi NE 5.8 mph - N/A   Unknown
10:25 AM 69.8 °F - 60.8 °F 73% 30.42 in 6.2 mi NE 6.9 mph - N/A   Unknown
10:55 AM 71.6 °F - 59.0 °F 64% 30.42 in 6.2 mi NE 8.1 mph - N/A   Unknown
11:00 AM 72 °F - 60 °F 56% 30.44 in 14 mi ENE 8.9 mph - -  
11:25 AM 73.4 °F - 59.0 °F 61% 30.42 in 6.2 mi NNE 8.1 mph - N/A   Unknown
11:55 AM 75.2 °F - 59.0 °F 57% 30.42 in 6.2 mi NE 10.4 mph - N/A   Unknown
12:25 PM 75.2 °F - 59.0 °F 57% 30.42 in 6.2 mi NE 10.4 mph - N/A   Unknown
12:55 PM 77.0 °F - 57.2 °F 50% 30.42 in 6.2 mi NE 10.4 mph - N/A   Partly Cloudy
1:25 PM 78.8 °F - 57.2 °F 47% 30.42 in 6.2 mi NE 12.7 mph - N/A   Unknown
1:55 PM 78.8 °F - 57.2 °F 47% 30.39 in 6.2 mi NE 12.7 mph - N/A   Unknown
2:00 PM 78 °F - 58 °F 40% 30.41 in 15 mi ENE 11.2 mph - -   Partly Cloudy
2:25 PM 77.0 °F - 57.2 °F 50% 30.39 in 6.2 mi NE 11.5 mph - N/A   Unknown
2:55 PM 78.8 °F - 57.2 °F 47% 30.39 in 6.2 mi NE 11.5 mph - N/A   Unknown
3:25 PM 80.6 °F 80.8 °F 57.2 °F 45% 30.39 in 6.2 mi NE 12.7 mph - N/A   Unknown
3:55 PM 80.6 °F 81.1 °F 59.0 °F 48% 30.39 in 6.2 mi NE 12.7 mph - N/A   Unknown
4:25 PM 80.6 °F 80.5 °F 55.4 °F 42% 30.36 in 6.2 mi NE 13.8 mph - N/A   Unknown
4:55 PM 80.6 °F 80.5 °F 55.4 °F 42% 30.36 in 6.2 mi NE 13.8 mph - N/A   Unknown
5:00 PM 80 °F - 57 °F 35% 30.38 in 16 mi NE 13.4 mph - -  
5:25 PM 80.6 °F 80.5 °F 55.4 °F 42% 30.36 in 6.2 mi NE 15.0 mph - N/A   Unknown
5:55 PM 80.6 °F 80.5 °F 55.4 °F 42% 30.36 in 6.2 mi NE 13.8 mph - N/A   Unknown
6:25 PM 80.6 °F 80.5 °F 55.4 °F 42% 30.33 in 6.2 mi NE 13.8 mph - N/A   Unknown
6:55 PM 78.8 °F - 57.2 °F 47% 30.33 in 6.2 mi NNE 13.8 mph - N/A   Unknown
7:25 PM 78.8 °F - 57.2 °F 47% 30.33 in 6.2 mi NE 12.7 mph - N/A   Unknown
7:55 PM 77.0 °F - 59.0 °F 54% 30.33 in 6.2 mi NE 13.8 mph - N/A   Unknown
8:00 PM 77 °F - 58 °F 41% 30.34 in 19 mi NNE 13.4 mph - -   Partly Cloudy
8:25 PM 77.0 °F - 59.0 °F 54% 30.33 in 6.2 mi NNE 12.7 mph - N/A   Unknown
8:55 PM 75.2 °F - 59.0 °F 57% 30.33 in 6.2 mi NNE 12.7 mph - N/A   Unknown
9:25 PM 73.4 °F - 59.0 °F 61% 30.33 in 6.2 mi NNE 11.5 mph - N/A   Unknown
9:55 PM 73.4 °F - 57.2 °F 57% 30.33 in 6.2 mi NNE 12.7 mph - N/A   Unknown
10:25 PM 71.6 °F - 57.2 °F 60% 30.33 in 6.2 mi NE 11.5 mph - N/A   Unknown
10:55 PM 69.8 °F - 57.2 °F 64% 30.36 in 6.2 mi NNE 10.4 mph - N/A   Unknown
11:00 PM 70 °F - 57 °F 55% 30.36 in 19 mi NNE 8.9 mph - -  
11:25 PM 69.8 °F - 57.2 °F 64% 30.36 in 6.2 mi NE 10.4 mph - N/A   Unknown
11:55 PM 68.0 °F - 57.2 °F 68% 30.33 in 6.2 mi NE 9.2 mph - N/A   Unknown